[[{"header":{"parameterUnit":"m.s-1","parameterCategory":1,"la1":30.2991,"la2":30.254,"lo1":-89.0895,"lo2":-89.0444,"dy":0.0017,"dx":0.0017,"nx":28,"ny":28,"refTime":"2023-10-15T03:00:00:Z","depth":0,"parameterNumber":2,"parameterNumberName":"U-component_of_WINDS"},"data":[0,0,0,0,0,0,0,0,0,0,0,0,0,0,0,0,0,0,0,0,0,0,0,0,0,0,0,0,0,0,0,0,0,0,0,0,0,0,0,0,0,0,0,0,0,0,0,0,0,0,0,0,0,0,0,0,0,0,1.9463,1.9463,0,1.9472,1.9472,1.9472,1.9449,1.9449,1.9448,1.9447,1.9456,1.9457,1.9457,0,0,0,0,0,0,0,0,0,0,0,0,0,1.9429,1.943,1.9463,1.9463,1.9463,1.9472,1.9472,1.9472,1.9449,1.9449,1.9448,1.9447,1.9455,1.9456,1.9457,0,0,0,0,0,0,0,0,0,0,0,0,0,1.9441,1.943,1.9463,1.9453,1.9452,1.9472,1.9472,1.9472,1.945,1.9449,1.9448,1.9447,1.9455,1.9456,1.9458,1.9487,0,0,1.9462,1.9462,0,0,0,0,0,0,0,0,1.9441,1.9443,1.9455,1.9454,1.9453,1.9458,1.9463,1.9477,1.945,1.9451,1.9447,1.9446,1.9457,1.9458,1.9462,1.9487,1.9487,1.9462,1.9463,1.9463,1.9463,0,0,0,0,0,0,0,1.944,1.9442,1.9466,1.9455,1.9454,1.9449,1.9449,1.9465,1.946,1.9451,1.9449,1.945,1.9457,1.9461,1.9462,1.9487,1.9462,1.9463,1.9464,1.9464,1.9538,1.9539,0,0,0,0,0,0,1.944,1.9442,1.9466,1.9467,1.9444,1.945,1.9451,1.9458,1.946,1.9459,1.9451,1.9449,1.9459,1.9461,1.9463,1.9497,1.9463,1.9464,1.9465,1.9537,1.9538,1.9539,0,0,0,0,0,0,1.944,1.9443,1.9466,1.9454,1.9456,1.9452,1.946,1.9458,1.9463,1.946,1.9459,1.9456,1.9459,1.9461,1.9481,1.9497,1.9465,1.9466,1.9535,1.9537,1.9539,1.9567,0,0,0,0,0,0,1.9439,1.9442,1.9453,1.9454,1.9457,1.9484,1.9461,1.9459,1.9465,1.9463,1.9465,1.9464,1.9458,1.9479,1.9482,1.9498,1.9467,1.9534,1.9536,1.9538,1.9564,1.9569,1.9573,0,0,0,0,0,1.9437,1.946,1.9454,1.9457,1.947,1.9485,1.9487,1.9479,1.9466,1.9477,1.9476,1.9464,1.9495,1.9482,1.9485,1.9502,1.9533,1.9536,1.9538,1.9562,1.9568,1.9573,0,0,0,0,0,0,1.946,1.946,1.9453,1.9476,1.9481,1.9481,1.9494,1.9486,1.9494,1.9491,1.9481,1.9482,1.9505,1.9505,1.949,1.9531,1.9512,1.9515,1.9529,1.9535,1.9539,1.9538,1.9468,0,0,0,0,0,1.9468,1.948,1.9479,1.95,1.9503,1.9499,1.9505,1.9499,1.9503,1.9505,1.9505,1.9509,1.952,1.9528,1.9537,1.9565,1.9565,1.9578,1.9582,1.9586,1.9589,1.9605,1.961,1.9548,1.9548,1.9548,0,0,1.9485,1.9486,1.9494,1.9505,1.9508,1.9521,1.95,1.9514,1.9524,1.9507,1.9526,1.9527,1.9531,1.9556,1.9566,1.9557,1.9607,1.959,1.9593,1.9593,1.9608,1.9614,1.9619,1.955,1.955,1.9549,0,0,1.9521,1.9523,1.9541,1.9545,1.955,1.9547,1.9551,1.9553,1.9553,1.9572,1.956,1.9572,1.9591,1.9595,1.9599,1.964,1.9629,1.9643,1.9667,1.9682,1.9687,1.9691,1.9706,1.9711,1.9646,1.9646,1.9646,0,1.954,1.9559,1.9551,1.9567,1.9573,1.9559,1.9578,1.9581,1.9589,1.9594,1.9583,1.9608,1.961,1.9635,1.9645,1.9649,1.9655,1.9642,1.9687,1.9691,1.9695,1.9709,1.9714,1.9648,1.9648,1.9648,1.9647,0,1.9583,1.9597,1.9611,1.962,1.9627,1.9644,1.964,1.9648,1.9642,1.9641,1.9662,1.9664,1.9675,1.968,1.9674,1.9706,1.97,1.9688,1.9669,1.9703,1.9716,1.9721,1.965,1.965,1.9649,1.9649,0,0,1.9632,1.9638,1.9643,1.9648,1.9653,1.9663,1.9681,1.9691,1.9699,1.9706,1.972,1.9738,1.9727,1.9733,1.9727,1.9741,1.9773,1.9728,1.9728,1.9736,1.9809,1.9817,1.9824,1.9767,1.9768,1.9769,1.9809,0,1.9669,1.9698,1.9693,1.9721,1.9734,1.9722,1.9737,1.9742,1.9742,1.9753,1.9753,1.9765,1.9751,1.9754,1.9767,1.9767,1.9788,1.9764,1.9781,1.9781,1.9779,1.983,1.9839,1.9876,1.9813,1.9814,1.9815,0,1.9714,1.9723,1.9753,1.9758,1.9763,1.9777,1.9787,1.9798,1.9804,1.9803,1.981,1.9803,1.982,1.9802,1.9827,1.981,1.9817,1.9819,1.982,1.9821,1.98,1.9833,1.9888,1.9894,1.9823,1.9822,1.9822,0,1.9748,1.9767,1.9788,1.9792,1.9798,1.9808,1.9811,1.9816,1.9823,1.9833,1.9838,1.9849,1.9855,1.9864,1.986,1.9847,1.9886,1.9867,1.9886,1.9886,1.9894,1.9893,1.9951,1.9899,1.9899,1.9898,1.9898,0,1.9788,1.9807,1.9803,1.9816,1.9838,1.9832,1.9853,1.9855,1.986,1.9873,1.9863,1.9876,1.987,1.9883,1.988,1.9902,1.9904,1.9904,1.9903,1.9905,1.9905,1.9909,1.9906,1.99,1.99,1.9899,1.9899,0,1.9829,1.9827,1.9849,1.9853,1.9855,1.987,1.9874,1.9887,1.9886,1.9903,1.9907,1.9906,1.9921,1.9918,1.9934,1.9932,1.9959,1.9955,1.9957,1.9956,1.9975,1.9974,2.0037,2.0045,1.9988,1.9989,1.9989,0,1.9854,1.9869,1.9875,1.9884,1.9888,1.9901,1.9909,1.9905,1.9913,1.9922,1.9934,1.9948,1.9958,1.9982,1.9983,1.9996,1.9992,2.0013,1.9993,1.9995,1.9992,1.9991,1.9993,2.0017,2.0018,2.0018,2.0019,0,1.9901,1.9899,1.9911,1.9923,1.9933,1.9942,1.995,1.9958,1.9954,1.9965,1.998,1.9988,2.0005,2.0019,2.0031,2.0034,2.0026,2.0025,2.003,2.0032,2.0033,2.0033,1.9968,2.0023,2.0023,2.0023,2.0022,2.0022,1.9935,1.9947,1.9954,1.9968,1.9974,1.9982,1.9995,1.9996,2.0009,2.0022,2.0019,2.0036,2.0044,2.0059,2.0064,2.0078,2.007,2.0077,2.0079,2.0081,2.0083,2.0031,2.008,2.008,2.008,2.0079,2.0079,0,1.9981,1.9985,1.9998,2.001,2.0021,2.0013,2.0022,2.0032,2.0048,2.0055,2.0066,2.0084,2.0099,2.0101,2.0115,2.0125,2.0122,2.0129,2.0128,2.0129,2.0089,2.0083,2.0132,2.0132,2.0132,2.0132,2.0132,2.0132,2.0006,2.0027,2.0027,2.0052,2.0056,2.0073,2.0079,2.0087,2.0094,2.0114,2.0126,2.0128,2.0134,2.0148,2.0161,2.0162,2.0167,2.0176,2.0175,2.0137,2.0132,2.0127,2.0121,2.0177,2.0177,2.0214,2.0214,2.0214]},{"header":{"parameterUnit":"m.s-1","parameterCategory":1,"la1":30.2991,"la2":30.254,"lo1":-89.0895,"lo2":-89.0444,"dy":0.0017,"dx":0.0017,"nx":28,"ny":28,"refTime":"2023-10-15T03:00:00:Z","depth":0,"parameterNumber":3,"parameterNumberName":"V-component_of_WINDS"},"data":[0,0,0,0,0,0,0,0,0,0,0,0,0,0,0,0,0,0,0,0,0,0,0,0,0,0,0,0,0,0,0,0,0,0,0,0,0,0,0,0,0,0,0,0,0,0,0,0,0,0,0,0,0,0,0,0,0,0,-6.1747,-6.1748,0,-6.1859,-6.186,-6.1861,-6.1843,-6.1842,-6.184,-6.1838,-6.1947,-6.1952,-6.1956,0,0,0,0,0,0,0,0,0,0,0,0,0,-6.1516,-6.1521,-6.1747,-6.1748,-6.175,-6.1858,-6.186,-6.1861,-6.1844,-6.1841,-6.1839,-6.1837,-6.1946,-6.1951,-6.1957,0,0,0,0,0,0,0,0,0,0,0,0,0,-6.1621,-6.1522,-6.1747,-6.1754,-6.1756,-6.1858,-6.186,-6.1862,-6.1844,-6.1841,-6.1839,-6.1836,-6.1944,-6.195,-6.1957,-6.2058,0,0,-6.1979,-6.1982,0,0,0,0,0,0,0,0,-6.1615,-6.1629,-6.1752,-6.1754,-6.1756,-6.1834,-6.1819,-6.1927,-6.1845,-6.1811,-6.1838,-6.1834,-6.1912,-6.1921,-6.1948,-6.2063,-6.2067,-6.1979,-6.1984,-6.1987,-6.1989,0,0,0,0,0,0,0,-6.1608,-6.1624,-6.1791,-6.1754,-6.1756,-6.1751,-6.1763,-6.1839,-6.1875,-6.1813,-6.1812,-6.1826,-6.1912,-6.1941,-6.195,-6.2069,-6.1979,-6.1985,-6.199,-6.1993,-6.2274,-6.2277,0,0,0,0,0,0,-6.1599,-6.1619,-6.1787,-6.1794,-6.1677,-6.1758,-6.1771,-6.1812,-6.1875,-6.1882,-6.1828,-6.1825,-6.1931,-6.1942,-6.1954,-6.2078,-6.1987,-6.1993,-6.1997,-6.2271,-6.2275,-6.2279,0,0,0,0,0,0,-6.1594,-6.1614,-6.1783,-6.1706,-6.1727,-6.1765,-6.1811,-6.1816,-6.1845,-6.1886,-6.1892,-6.1852,-6.1929,-6.1944,-6.2033,-6.2081,-6.1996,-6.2003,-6.2267,-6.2272,-6.2277,-6.2324,0,0,0,0,0,0,-6.1587,-6.1613,-6.1651,-6.1707,-6.1732,-6.1861,-6.1814,-6.182,-6.1858,-6.1854,-6.191,-6.1916,-6.1928,-6.2023,-6.204,-6.2089,-6.2008,-6.2263,-6.2269,-6.2275,-6.2318,-6.233,-6.234,0,0,0,0,0,-6.1579,-6.1658,-6.1653,-6.1674,-6.1781,-6.1864,-6.1877,-6.1891,-6.1861,-6.1901,-6.1928,-6.1914,-6.2073,-6.2032,-6.2051,-6.2103,-6.226,-6.2268,-6.2275,-6.2313,-6.2328,-6.2339,0,0,0,0,0,0,-6.1605,-6.1666,-6.1661,-6.1761,-6.1808,-6.1861,-6.191,-6.1905,-6.196,-6.1954,-6.1967,-6.1979,-6.207,-6.2095,-6.2048,-6.2205,-6.2162,-6.2174,-6.2185,-6.2199,-6.2209,-6.2201,-6.2014,0,0,0,0,0,-6.1622,-6.1685,-6.1735,-6.1818,-6.1842,-6.1873,-6.1909,-6.1916,-6.1964,-6.1983,-6.2016,-6.2062,-6.2123,-6.2162,-6.222,-6.2322,-6.2334,-6.2367,-6.2378,-6.2387,-6.2397,-6.2455,-6.247,-6.2303,-6.2303,-6.2303,0,0,-6.1658,-6.17,-6.1738,-6.1824,-6.1861,-6.1926,-6.1889,-6.1958,-6.2006,-6.1993,-6.208,-6.2106,-6.2158,-6.2255,-6.2299,-6.2279,-6.2446,-6.2396,-6.2403,-6.2408,-6.2464,-6.248,-6.2494,-6.2308,-6.2307,-6.2306,0,0,-6.1758,-6.1795,-6.187,-6.1909,-6.1966,-6.1986,-6.2004,-6.2059,-6.2077,-6.2165,-6.2157,-6.2214,-6.2317,-6.2356,-6.2389,-6.2506,-6.2496,-6.2524,-6.2581,-6.2637,-6.265,-6.2662,-6.2705,-6.2721,-6.2534,-6.2534,-6.2534,0,-6.1795,-6.1893,-6.1908,-6.198,-6.2019,-6.2012,-6.2088,-6.2124,-6.2197,-6.2224,-6.22,-6.2332,-6.2367,-6.2474,-6.2503,-6.2529,-6.2551,-6.2518,-6.2647,-6.2659,-6.2671,-6.2712,-6.2728,-6.2537,-6.2537,-6.2537,-6.2536,0,-6.1937,-6.2006,-6.2059,-6.2133,-6.2177,-6.225,-6.2276,-6.2319,-6.2323,-6.2346,-6.2436,-6.2478,-6.2545,-6.2571,-6.2573,-6.2679,-6.2665,-6.2644,-6.2602,-6.269,-6.2729,-6.2745,-6.2542,-6.2541,-6.254,-6.2539,0,0,-6.2054,-6.2138,-6.2157,-6.2191,-6.2256,-6.2308,-6.2382,-6.245,-6.2487,-6.2538,-6.26,-6.269,-6.2673,-6.271,-6.2717,-6.2767,-6.286,-6.2741,-6.2742,-6.2763,-6.298,-6.2996,-6.3014,-6.2854,-6.2857,-6.2859,-6.2976,0,-6.216,-6.2292,-6.2309,-6.2426,-6.249,-6.2486,-6.255,-6.2596,-6.262,-6.2677,-6.2702,-6.2767,-6.2738,-6.2761,-6.281,-6.2838,-6.2904,-6.283,-6.2912,-6.2914,-6.2899,-6.3034,-6.305,-6.3158,-6.2991,-6.2994,-6.2996,0,-6.2302,-6.236,-6.2484,-6.2542,-6.257,-6.2627,-6.2693,-6.2747,-6.28,-6.2814,-6.2858,-6.286,-6.2936,-6.2891,-6.2996,-6.2945,-6.298,-6.2999,-6.3003,-6.3012,-6.2961,-6.3047,-6.3193,-6.321,-6.302,-6.3018,-6.3016,0,-6.2377,-6.2485,-6.2574,-6.2604,-6.2673,-6.2714,-6.2745,-6.2795,-6.2836,-6.2893,-6.2919,-6.2983,-6.3018,-6.3067,-6.3087,-6.3052,-6.3191,-6.3147,-6.3205,-6.3205,-6.3234,-6.3232,-6.3389,-6.3255,-6.3255,-6.3255,-6.3255,0,-6.2494,-6.257,-6.2609,-6.2664,-6.275,-6.2769,-6.2852,-6.2881,-6.2927,-6.2987,-6.2986,-6.3042,-6.3064,-6.3123,-6.3139,-6.3224,-6.324,-6.3253,-6.3256,-6.3254,-6.3252,-6.3276,-6.327,-6.3259,-6.3258,-6.3257,-6.3257,0,-6.2592,-6.2621,-6.2718,-6.2777,-6.2794,-6.2855,-6.2905,-6.2958,-6.2982,-6.3058,-6.3077,-6.3114,-6.3185,-6.3209,-6.3293,-6.3304,-6.3404,-6.34,-6.3387,-6.3388,-6.3445,-6.344,-6.3623,-6.3649,-6.3497,-6.3499,-6.35,0,-6.2665,-6.2724,-6.2791,-6.2833,-6.2866,-6.2932,-6.2975,-6.2996,-6.304,-6.3107,-6.3152,-6.3222,-6.328,-6.3393,-6.3426,-6.3492,-6.349,-6.355,-6.3499,-6.3496,-6.3492,-6.3489,-6.3496,-6.3559,-6.3561,-6.3562,-6.3563,0,-6.2793,-6.2805,-6.2868,-6.2937,-6.2988,-6.3043,-6.3095,-6.3129,-6.3158,-6.3208,-6.3281,-6.3326,-6.3414,-6.3485,-6.3552,-6.3582,-6.3578,-6.3579,-6.3596,-6.3594,-6.3585,-6.3592,-6.3414,-6.3574,-6.3573,-6.3572,-6.3572,-6.3571,-6.2882,-6.2935,-6.2992,-6.3062,-6.3105,-6.3154,-6.3208,-6.324,-6.3303,-6.3378,-6.3386,-6.3466,-6.3518,-6.3609,-6.3643,-6.3705,-6.3688,-6.3712,-6.3719,-6.3725,-6.373,-6.3575,-6.3717,-6.3717,-6.3716,-6.3716,-6.3716,0,-6.3011,-6.3048,-6.3112,-6.3188,-6.3244,-6.3237,-6.3295,-6.3342,-6.3413,-6.3463,-6.3521,-6.3607,-6.3676,-6.3716,-6.3785,-6.3827,-6.3827,-6.3845,-6.3842,-6.385,-6.374,-6.3719,-6.3844,-6.3844,-6.3844,-6.3844,-6.3844,-6.3844,-6.3084,-6.3175,-6.3195,-6.3307,-6.3343,-6.3423,-6.3457,-6.3504,-6.3545,-6.3641,-6.3699,-6.3726,-6.3773,-6.3846,-6.3909,-6.392,-6.3945,-6.3965,-6.3973,-6.387,-6.3857,-6.3845,-6.3825,-6.397,-6.397,-6.4078,-6.4079,-6.408]}]]